FW6620 Weather Reports


time (UTC)temp
C
wind
direction
speed
KPH
gust
KPH
rain 1hr
cm
rain 24hr
cm
rain mn
cm
humidity
%
barometer
mb
20260906235047 32 91 0.0 4.8 0.00 0.10 0.10 62 1011.8
20260906234552 32 91 0.0 4.8 0.00 0.10 0.10 62 1011.9
20260906234047 32 0 0.0 3.2 0.00 0.10 0.10 64 1011.8
20260906233546 32 91 0.0 4.8 0.00 0.10 0.10 62 1011.8
20260906233102 32 0 0.0 4.8 0.00 0.10 0.10 62 1011.8
20260906232546 32 0 0.0 4.8 0.00 0.10 0.10 62 1011.8
20260906232047 32 0 0.0 6.4 0.00 0.10 0.10 63 1011.8
20260906231557 32 0 1.6 6.4 0.00 0.10 0.10 63 1011.8
20260906231047 32 0 0.0 6.4 0.00 0.10 0.10 64 1011.9
20260906230547 32 0 0.0 6.4 0.00 0.10 0.10 63 1011.9
20260906230058 32 0 1.6 6.4 0.00 0.10 0.10 63 1011.9
20260906225547 32 91 0.0 8.0 0.00 0.10 0.10 63 1012.1
20260906225047 32 120 3.2 8.0 0.00 0.10 0.10 63 1012.2
20260906224601 32 94 0.0 8.0 0.00 0.10 0.10 63 1012.1
20260906224047 32 100 1.6 8.0 0.00 0.10 0.10 64 1012.2
20260906223547 32 100 3.2 11.3 0.00 0.10 0.10 63 1012.4
20260906223103 32 0 1.6 11.3 0.00 0.10 0.10 64 1012.3
20260906222547 32 93 0.0 6.4 0.00 0.10 0.10 64 1012.4
20260906222047 32 0 1.6 8.0 0.00 0.10 0.10 64 1012.3
20260906221558 32 96 1.6 8.0 0.00 0.10 0.10 64 1012.3
20260906221050 32 87 0.0 6.4 0.00 0.10 0.10 64 1012.3
20260906220551 32 0 0.0 8.0 0.00 0.10 0.10 64 1012.4
20260906220058 32 87 3.2 8.0 0.00 0.10 0.10 63 1012.4
20260906215547 32 0 0.0 4.8 0.00 0.10 0.10 65 1012.5
20260906215047 32 93 0.0 6.4 0.00 0.10 0.10 65 1012.7
20260906214610 32 0 0.0 6.4 0.00 0.10 0.10 64 1012.6
20260906214047 32 94 1.6 6.4 0.00 0.10 0.10 63 1012.6
20260906213547 32 0 1.6 6.4 0.00 0.10 0.10 63 1012.8
20260906213101 32 93 1.6 6.4 0.00 0.10 0.10 62 1012.8
20260906212546 32 0 1.6 4.8 0.00 0.10 0.10 61 1012.8
20260906212047 33 0 0.0 4.8 0.00 0.10 0.10 61 1012.9
20260906211558 33 0 0.0 4.8 0.00 0.10 0.10 60 1012.8
20260906211047 33 94 0.0 4.8 0.00 0.10 0.10 59 1012.9
20260906210547 33 94 0.0 4.8 0.00 0.10 0.10 59 1012.9
20260906210114 33 0 0.0 4.8 0.00 0.10 0.10 58 1012.8
20260906205549 34 0 0.0 8.0 0.00 0.10 0.10 58 1012.9
20260906205046 34 0 0.0 8.0 0.00 0.10 0.10 58 1012.9
20260906204621 34 95 1.6 8.0 0.00 0.10 0.10 55 1012.9
20260906204047 34 96 1.6 6.4 0.00 0.10 0.10 56 1013.0
20260906203547 34 0 0.0 4.8 0.00 0.10 0.10 54 1012.9
20260906203103 34 95 0.0 4.8 0.00 0.10 0.10 55 1013.1
20260906202546 34 0 0.0 4.8 0.00 0.10 0.10 55 1013.0
20260906202046 34 0 0.0 8.0 0.00 0.10 0.10 56 1013.0
20260906201557 34 0 1.6 8.0 0.00 0.10 0.10 55 1013.0
20260906201047 34 93 1.6 6.4 0.00 0.10 0.10 55 1013.1
20260906200551 34 0 0.0 4.8 0.00 0.10 0.10 56 1013.2
20260906200054 34 0 0.0 4.8 0.00 0.10 0.10 56 1013.3
20260906195547 34 86 0.0 4.8 0.00 0.10 0.10 55 1013.4
20260906195047 35 0 0.0 4.8 0.00 0.10 0.10 54 1013.4
20260906194551 35 86 0.0 4.8 0.00 0.10 0.10 55 1013.5
20260906194047 34 86 0.0 4.8 0.00 0.10 0.10 56 1013.6
20260906193547 34 0 0.0 4.8 0.00 0.10 0.10 56 1013.5
20260906193058 34 86 1.6 6.4 0.00 0.10 0.10 55 1013.6
20260906192546 34 0 0.0 8.0 0.00 0.10 0.10 57 1013.6
20260906192049 34 86 3.2 8.0 0.00 0.10 0.10 55 1013.6
20260906191607 33 97 1.6 6.4 0.00 0.10 0.10 57 1013.6
20260906191047 33 0 0.0 4.8 0.00 0.10 0.10 59 1013.7
20260906190547 33 99 1.6 4.8 0.00 0.10 0.10 58 1013.8
20260906190108 33 0 1.6 6.4 0.00 0.10 0.10 61 1013.8
20260906185547 33 99 1.6 6.4 0.00 0.10 0.10 61 1013.9
20260906185047 32 0 0.0 4.8 0.00 0.10 0.10 60 1013.9
20260906184603 32 102 0.0 4.8 0.00 0.10 0.10 60 1014.0
20260906184050 32 102 0.0 4.8 0.00 0.10 0.10 63 1014.0
20260906183550 32 0 0.0 3.2 0.00 0.10 0.10 62 1014.1
20260906183100 31 0 0.0 3.2 0.00 0.10 0.10 64 1014.1
20260906182548 31 102 0.0 3.2 0.00 0.10 0.10 65 1014.1
20260906182046 31 0 0.0 0.0 0.00 0.10 0.10 66 1014.2
20260906181558 30 0 0.0 0.0 0.00 0.10 0.10 68 1014.2
20260906181046 30 0 0.0 0.0 0.00 0.10 0.10 70 1014.4
20260906180547 30 0 0.0 0.0 0.00 0.10 0.10 72 1014.5
20260906180112 29 0 0.0 1.6 0.00 0.10 0.10 75 1014.6
20260906175547 29 0 0.0 3.2 0.00 0.10 0.10 77 1014.7
20260906175046 28 0 0.0 3.2 0.00 0.10 0.10 82 1014.8
20260906174606 28 0 0.0 3.2 0.00 0.10 0.10 83 1014.8
20260906174047 27 0 0.0 3.2 0.00 0.10 0.10 85 1014.9
20260906173546 27 0 0.0 3.2 0.00 0.10 0.10 87 1015.0
20260906173102 27 0 0.0 3.2 0.00 0.10 0.10 91 1015.1
20260906172548 27 0 0.0 1.6 0.00 0.10 0.10 95 1015.1
20260906172046 26 0 0.0 1.6 0.00 0.10 0.10 95 1015.3
20260906171557 27 0 0.0 0.0 0.00 0.10 0.10 96 1015.5
20260906171046 26 0 0.0 0.0 0.00 0.10 0.10 95 1015.6
20260906170546 26 0 0.0 0.0 0.00 0.10 0.10 96 1015.7
20260906170108 26 0 0.0 0.0 0.00 0.10 0.10 95 1015.7
20260906165548 26 0 0.0 0.0 0.05 0.10 0.10 95 1015.7
20260906165047 26 0 0.0 0.0 0.10 0.10 0.10 95 1015.7
20260906164605 26 0 0.0 0.0 0.10 0.10 0.10 94 1015.7
20260906164047 26 0 0.0 0.0 0.10 0.10 0.10 95 1015.8
20260906163549 26 0 0.0 0.0 0.10 0.10 0.10 95 1015.9
20260906163101 26 0 0.0 0.0 0.10 0.10 0.10 95 1015.8
20260906162547 26 0 0.0 0.0 0.10 0.10 0.10 94 1015.8
20260906162046 26 0 0.0 0.0 0.10 0.10 0.10 92 1015.9
20260906161556 26 0 0.0 0.0 0.10 0.10 0.10 91 1015.8
20260906161047 26 0 0.0 0.0 0.10 0.10 0.10 91 1015.8
20260906160546 26 0 0.0 1.6 0.10 0.10 0.10 89 1015.8
20260906160056 26 0 0.0 1.6 0.10 0.10 0.10 85 1015.9
20260906155547 27 0 0.0 1.6 0.05 0.05 0.05 85 1015.9
20260906155046 27 0 0.0 1.6 0.00 0.00 0.00 84 1015.9
20260906154606 28 0 0.0 1.6 0.00 0.00 0.00 84 1015.8
20260906154046 28 0 0.0 3.2 0.00 0.00 0.00 85 1015.8
20260906153546 28 0 0.0 8.0 0.00 0.00 0.00 84 1015.8
20260906153114 28 0 0.0 8.0 0.00 0.00 0.00 83 1015.7
20260906152546 28 100 0.0 8.0 0.00 0.00 0.00 83 1015.7
20260906152046 28 0 0.0 1.6 0.00 0.00 0.00 83 1015.6
20260906151603 28 0 0.0 1.6 0.00 0.00 0.00 83 1015.5
20260906151046 28 0 0.0 1.6 0.00 0.00 0.00 83 1015.5
20260906150547 28 93 0.0 0.0 0.00 0.00 0.00 83 1015.4
20260906150055 28 0 0.0 3.2 0.00 0.00 0.00 83 1015.4
20260906145547 28 0 0.0 3.2 0.00 0.00 0.00 83 1015.3
20260906145047 28 0 0.0 3.2 0.00 0.00 0.00 82 1015.1
20260906144601 28 0 0.0 1.6 0.00 0.00 0.00 83 1015.1
20260906144046 27 0 0.0 3.2 0.00 0.00 0.00 84 1015.1
20260906143547 27 0 0.0 3.2 0.00 0.00 0.00 83 1015.1
20260906143058 27 93 0.0 3.2 0.00 0.00 0.00 84 1015.1
20260906142546 27 0 0.0 3.2 0.00 0.00 0.00 84 1015.1
20260906142048 27 0 0.0 3.2 0.00 0.00 0.00 84 1015.2
20260906141558 27 0 0.0 3.2 0.00 0.00 0.00 84 1015.2
20260906141046 27 0 0.0 3.2 0.00 0.00 0.00 84 1015.1
20260906140546 27 0 0.0 4.8 0.00 0.00 0.00 84 1015.1
20260906140054 27 0 0.0 4.8 0.00 0.00 0.00 85 1015.0
20260906135546 27 0 0.0 4.8 0.00 0.00 0.00 85 1015.1
20260906135045 27 0 0.0 3.2 0.00 0.00 0.00 85 1014.9
20260906134615 27 0 0.0 3.2 0.00 0.00 0.00 85 1015.0
20260906134047 27 92 0.0 4.8 0.00 0.00 0.00 85 1015.0
20260906133547 27 0 0.0 4.8 0.00 0.00 0.00 85 1014.9
20260906133059 26 0 1.6 4.8 0.00 0.00 0.00 86 1014.8
20260906132547 26 0 0.0 1.6 0.00 0.00 0.00 86 1014.8
20260906132047 26 0 0.0 1.6 0.00 0.00 0.00 86 1014.7
20260906131557 26 0 0.0 1.6 0.00 0.00 0.00 87 1014.5
20260906131046 26 0 0.0 1.6 0.00 0.00 0.00 87 1014.4
20260906130546 26 0 0.0 1.6 0.00 0.00 0.00 87 1014.3
20260906130054 26 0 0.0 0.0 0.00 0.00 0.00 87 1014.4
20260906125546 26 0 0.0 0.0 0.00 0.00 0.00 86 1014.3
20260906125047 26 0 0.0 0.0 0.00 0.00 0.00 86 1014.3
20260906124600 26 0 0.0 0.0 0.00 0.00 0.00 86 1014.2
20260906124047 25 0 0.0 0.0 0.00 0.00 0.00 86 1014.2
20260906123547 26 0 0.0 0.0 0.00 0.00 0.00 86 1014.2
20260906123101 26 0 0.0 0.0 0.00 0.00 0.00 85 1014.2
20260906122547 26 0 0.0 0.0 0.00 0.00 0.00 85 1014.0
20260906122045 26 0 0.0 0.0 0.00 0.00 0.00 85 1013.9
20260906121555 26 0 0.0 0.0 0.00 0.00 0.00 84 1013.9
20260906121046 26 0 0.0 0.0 0.00 0.00 0.00 84 1013.8
20260906120549 26 0 0.0 0.0 0.00 0.00 0.00 84 1013.7
20260906120057 26 0 0.0 0.0 0.00 0.00 0.00 84 1013.6
20260906115546 26 0 0.0 0.0 0.00 0.00 0.00 83 1013.4
20260906115047 26 0 0.0 0.0 0.00 0.00 0.00 84 1013.5
20260906114602 26 0 0.0 0.0 0.00 0.00 0.00 84 1013.5
20260906114046 26 0 0.0 0.0 0.00 0.00 0.00 84 1013.4
20260906113546 26 0 0.0 0.0 0.00 0.00 0.00 84 1013.2
20260906113100 26 0 0.0 0.0 0.00 0.00 0.00 84 1013.1
20260906112546 26 0 0.0 0.0 0.00 0.00 0.00 84 1013.0
20260906112046 26 0 0.0 0.0 0.00 0.00 0.00 83 1012.9
20260906111558 26 0 0.0 0.0 0.00 0.00 0.00 83 1012.9
20260906111046 26 0 0.0 0.0 0.00 0.00 0.00 83 1012.8
20260906110546 26 0 0.0 0.0 0.00 0.00 0.00 83 1012.7
20260906110055 26 0 0.0 0.0 0.00 0.00 0.00 83 1012.8
20260906105546 26 0 0.0 0.0 0.00 0.00 0.00 82 1012.8
20260906105046 27 0 0.0 0.0 0.00 0.00 0.00 82 1012.7
20260906104557 27 0 0.0 0.0 0.00 0.00 0.00 82 1012.7
20260906104048 27 0 0.0 0.0 0.00 0.00 0.00 82 1012.8
20260906103547 27 0 0.0 0.0 0.00 0.00 0.00 82 1012.8
20260906103109 27 0 0.0 0.0 0.00 0.00 0.00 82 1012.8
20260906102548 27 0 0.0 0.0 0.00 0.00 0.00 82 1012.7
20260906102047 27 0 0.0 0.0 0.00 0.00 0.00 81 1012.7
20260906101556 27 0 0.0 0.0 0.00 0.00 0.00 81 1012.7
20260906101047 27 0 0.0 1.6 0.00 0.00 0.00 81 1012.7
20260906100546 27 0 0.0 1.6 0.00 0.00 0.00 81 1012.7
20260906100105 27 0 0.0 0.0 0.00 0.00 0.00 81 1012.5
20260906095547 27 0 0.0 0.0 0.00 0.00 0.00 82 1012.6
20260906095049 27 0 0.0 0.0 0.00 0.00 0.00 81 1012.7
20260906094556 27 0 0.0 0.0 0.00 0.00 0.00 81 1012.8
20260906094046 27 0 0.0 1.6 0.00 0.00 0.00 81 1012.8
20260906093548 27 0 0.0 1.6 0.00 0.00 0.00 80 1012.8
20260906093100 27 0 0.0 0.0 0.00 0.00 0.00 80 1012.7
20260906092548 27 0 0.0 0.0 0.00 0.00 0.00 80 1012.7
20260906092047 27 0 0.0 0.0 0.00 0.00 0.00 80 1012.7
20260906091555 27 0 0.0 0.0 0.00 0.00 0.00 79 1012.7
20260906091046 27 0 0.0 0.0 0.00 0.00 0.00 79 1012.6
20260906090550 27 0 0.0 0.0 0.00 0.00 0.00 80 1012.7
20260906090117 27 0 0.0 0.0 0.00 0.00 0.00 79 1012.7
20260906085545 27 0 0.0 3.2 0.00 0.00 0.00 80 1012.7
20260906085046 27 0 0.0 3.2 0.00 0.00 0.00 79 1012.6
20260906084600 27 92 0.0 4.8 0.00 0.00 0.00 79 1012.7
20260906084047 27 92 0.0 4.8 0.00 0.00 0.00 78 1012.6
20260906083546 27 90 0.0 0.0 0.00 0.00 0.00 79 1012.6
20260906083056 27 0 0.0 0.0 0.00 0.00 0.00 78 1012.7
20260906082547 28 0 0.0 0.0 0.00 0.00 0.00 79 1012.7
20260906082046 28 0 0.0 3.2 0.00 0.00 0.00 78 1012.8
20260906081558 28 0 0.0 3.2 0.00 0.00 0.00 79 1012.7
20260906081046 28 91 0.0 1.6 0.00 0.00 0.00 77 1012.8
20260906080546 28 0 0.0 6.4 0.00 0.00 0.00 78 1012.9
20260906080110 28 0 0.0 6.4 0.00 0.00 0.00 77 1013.0
20260906075549 28 0 0.0 4.8 0.00 0.00 0.00 77 1013.0
20260906075046 28 0 0.0 3.2 0.00 0.00 0.00 77 1013.0
20260906074609 28 0 0.0 1.6 0.00 0.00 0.00 76 1013.1
20260906074045 28 0 0.0 3.2 0.00 0.00 0.00 76 1013.2
20260906073546 28 0 0.0 3.2 0.00 0.00 0.00 76 1013.3
20260906073110 28 0 0.0 1.6 0.00 0.00 0.00 76 1013.3
20260906072546 28 0 0.0 3.2 0.00 0.00 0.00 76 1013.4
20260906072047 28 0 0.0 3.2 0.00 0.00 0.00 75 1013.4
20260906071556 28 0 0.0 3.2 0.00 0.00 0.00 75 1013.4
20260906071046 28 0 0.0 3.2 0.00 0.00 0.00 75 1013.4
20260906070545 28 0 0.0 4.8 0.00 0.00 0.00 75 1013.4
20260906070054 28 90 0.0 4.8 0.00 0.00 0.00 74 1013.6
20260906065547 28 90 0.0 3.2 0.00 0.00 0.00 74 1013.6
20260906065045 28 0 0.0 4.8 0.00 0.00 0.00 74 1013.6
20260906064559 29 0 0.0 4.8 0.00 0.00 0.00 74 1013.5
20260906064046 29 89 0.0 4.8 0.00 0.00 0.00 74 1013.6
20260906063545 29 0 0.0 6.4 0.00 0.00 0.00 74 1013.8
20260906063103 29 0 0.0 6.4 0.00 0.00 0.00 73 1013.8
20260906062546 29 0 0.0 6.4 0.00 0.00 0.00 73 1013.7
20260906062046 29 0 0.0 9.7 0.00 0.00 0.00 73 1013.8
20260906061556 29 0 1.6 9.7 0.00 0.00 0.00 73 1013.8
20260906061050 29 90 0.0 11.3 0.00 0.00 0.00 73 1014.0
20260906060546 29 91 0.0 11.3 0.00 0.00 0.00 72 1013.9
20260906060105 29 101 1.6 6.4 0.00 0.00 0.00 72 1014.0
20260906055546 30 89 0.0 6.4 0.00 0.00 0.00 72 1013.8
20260906055047 30 0 0.0 8.0 0.00 0.00 0.00 72 1013.8
20260906054600 30 0 0.0 8.0 0.00 0.00 0.00 72 1013.9
20260906054047 30 0 0.0 8.0 0.00 0.00 0.00 72 1013.7
20260906053546 30 87 0.0 8.0 0.00 0.00 0.00 72 1013.6
20260906053059 30 91 1.6 8.0 0.00 0.00 0.00 71 1013.6
20260906052546 30 96 1.6 4.8 0.00 0.00 0.00 71 1013.7
20260906052047 30 0 0.0 4.8 0.00 0.00 0.00 71 1013.6
20260906051603 30 0 0.0 6.4 0.00 0.00 0.00 71 1013.8
20260906051046 30 0 0.0 6.4 0.00 0.00 0.00 70 1013.7
20260906050547 30 97 0.0 6.4 0.00 0.00 0.00 70 1013.8
20260906050106 30 97 0.0 11.3 0.00 0.00 0.00 70 1013.8
20260906045546 30 95 1.6 11.3 0.00 0.00 0.00 70 1013.7
20260906045046 30 0 0.0 6.4 0.00 0.00 0.00 70 1013.8
20260906044559 30 0 0.0 8.0 0.00 0.00 0.00 70 1013.7
20260906044049 30 0 0.0 8.0 0.00 0.00 0.00 69 1013.8
20260906043546 30 116 1.6 8.0 0.00 0.00 0.00 69 1013.8
20260906043101 30 96 0.0 6.4 0.00 0.00 0.00 69 1013.9
20260906042546 30 0 0.0 8.0 0.00 0.00 0.00 69 1013.8
20260906042046 30 90 0.0 8.0 0.00 0.00 0.00 68 1013.8
20260906041602 31 0 0.0 6.4 0.00 0.00 0.00 68 1013.8
20260906041046 31 92 0.0 4.8 0.00 0.00 0.00 68 1013.8
20260906040546 31 91 0.0 8.0 0.00 0.00 0.00 68 1013.7
20260906040104 31 91 0.0 8.0 0.00 0.00 0.00 67 1013.7
20260906035548 31 0 0.0 4.8 0.00 0.00 0.00 67 1013.6
20260906035046 31 95 1.6 4.8 0.00 0.00 0.00 67 1013.7
20260906034629 31 0 0.0 4.8 0.00 0.00 0.00 66 1013.8
20260906034045 31 93 0.0 8.0 0.00 0.00 0.00 66 1013.8
20260906033546 31 0 0.0 8.0 0.00 0.00 0.00 66 1013.8
20260906033058 31 0 0.0 8.0 0.00 0.00 0.00 65 1013.7
20260906032546 31 100 0.0 8.0 0.00 0.00 0.00 65 1013.6
20260906032046 31 0 1.6 8.0 0.00 0.00 0.00 64 1013.5
20260906031605 31 99 0.0 6.4 0.00 0.00 0.00 63 1013.4
20260906031046 31 0 1.6 4.8 0.00 0.00 0.00 63 1013.4
20260906030546 31 97 0.0 4.8 0.00 0.00 0.00 62 1013.2
20260906030059 32 97 0.0 4.8 0.00 0.00 0.00 61 1013.3
20260906025546 32 0 0.0 3.2 0.00 0.00 0.00 61 1013.2
20260906025047 32 0 0.0 4.8 0.00 0.00 0.00 60 1013.0
20260906024558 32 0 0.0 4.8 0.00 0.00 0.00 60 1012.7
20260906024048 32 0 0.0 8.0 0.00 0.00 0.00 60 1012.5
20260906023546 32 95 1.6 8.0 0.00 0.00 0.00 60 1012.3
20260906023101 32 118 1.6 8.0 0.00 0.00 0.00 60 1012.3
20260906022547 32 0 0.0 6.4 0.00 0.00 0.00 60 1012.2
20260906022047 32 0 0.0 3.2 0.00 0.00 0.00 59 1012.0
20260906021601 32 0 0.0 6.4 0.00 0.00 0.00 60 1011.9
20260906021051 32 0 0.0 6.4 0.00 0.00 0.00 59 1011.8
20260906020546 32 102 0.0 6.4 0.00 0.00 0.00 59 1011.6
20260906020105 32 0 0.0 6.4 0.00 0.00 0.00 58 1011.6
20260906015546 32 101 0.0 6.4 0.00 0.00 0.00 58 1011.6
20260906015046 32 0 0.0 3.2 0.00 0.00 0.00 58 1011.6
20260906014604 32 0 0.0 3.2 0.00 0.00 0.00 57 1011.6
20260906014045 32 0 0.0 3.2 0.00 0.00 0.00 57 1011.5
20260906013548 32 0 0.0 3.2 0.00 0.00 0.00 56 1011.5
20260906013107 33 0 0.0 3.2 0.00 0.00 0.00 56 1011.5
20260906012545 33 0 0.0 3.2 0.00 0.00 0.00 56 1011.5
20260906012047 33 104 0.0 3.2 0.00 0.00 0.00 56 1011.4
20260906011602 33 0 0.0 3.2 0.00 0.00 0.00 55 1011.4
20260906011045 33 0 0.0 6.4 0.00 0.00 0.00 55 1011.3
20260906010545 33 0 0.0 6.4 0.00 0.00 0.00 54 1011.4
20260906010100 33 0 1.6 6.4 0.00 0.00 0.00 53 1011.3
20260906005546 34 189 1.6 4.8 0.00 0.00 0.00 53 1011.2
20260906005046 34 0 1.6 9.7 0.00 0.00 0.00 52 1011.3
20260906004605 35 0 1.6 9.7 0.00 0.00 0.00 51 1011.1
20260906004046 35 115 1.6 6.4 0.00 0.00 0.00 50 1011.1
20260906003546 35 0 0.0 6.4 0.00 0.00 0.00 49 1011.0
20260906003101 35 105 1.6 6.4 0.00 0.00 0.00 48 1011.0
20260906002547 35 104 0.0 4.8 0.00 0.00 0.00 47 1010.9
20260906002050 35 115 0.0 4.8 0.00 0.00 0.00 46 1010.9
20260906001559 35 0 0.0 4.8 0.00 0.00 0.00 47 1010.8
20260906001049 35 112 0.0 3.2 0.00 0.00 0.00 47 1010.9
20260906000546 35 0 0.0 3.2 0.00 0.00 0.00 46 1010.8
20260906000106 36 0 0.0 3.2 0.00 0.00 0.00 46 1010.8
20260905235546 36 0 0.0 3.2 0.00 0.00 0.00 46 1010.9